Location: Il Ritiro
(43.4167°N, 13.1333°E)
Time: 16:18:36
(UTC+00:00)

USA 267 - Pass Details

Date: 05 July 2020
Orbit: 1102 x 1106 km, 123.0° (Epoch: 09 August)

Event Time Altitude Azimuth Distance (km) Brightness Sun altitude
Exits shadow 21:33:57 24° 117° (ESE) 2,098 4.3 -20.2°
Maximum altitude 21:38:07 74° 36° (NE) 1,143 3.4 -20.5°
Drops below altitude 10° 21:44:39 10° 313° (NW) 2,965 6.4 -20.9°
Sets 21:47:08 0° 312° (NW) 3,925 7.2 -21.1°
